View from above orbital plane
|
View from above satellite
|
Ground track
|
The orbit data is extracted from the following two-line orbital elements,
1 17590U 87027B 21018.74611852 -.00000199 00000-0 -75306-4 0 9998
2 17590 71.0023 268.0127 0002860 115.4842 244.6578 14.16792476749883
Epoch (UTC): | 18 January 2021 17:54:24 |
Eccentricity: | 0.0002860 |
inclination: | 71.0023° |
perigee height: | 834 km |
apogee height: | 838 km |
right ascension of ascending node: | 268.0127° |
argument of perigee: | 115.4842° |
revolutions per day: | 14.16792476 |
mean anomaly at epoch: | 244.6578° |
orbit number at epoch: | 74988 |
The dashed part of the orbit path shows where the satellite is in the earth's shadow,
|
|